Location: *
(44.1392°N, 4.8079°E)
Time: 14:28:51
(UTC+00:00)

NOSS 5 (C) - Pass Details

Date: 24 October 2021
Orbit: 381 x 1717 km, 63.3° (Epoch: 29 November)

Event Time Altitude Azimuth Distance (km) Brightness Sun altitude
Rises 18:15:48 0° 333° (NNW) 2,267 8.3 -17.4°
Reaches altitude 10° 18:18:01 10° 351° (N) 1,436 7.1 -17.8°
Enters shadow 18:19:20 18° 13° (NNE) 1,076 6.2 -18.1°
